Погода в Дракине

Россия / Республика Мордовия     54°02′48″N   43°15′36″E
темп.,
°C
ветер,
м/с
пор.,
м/с
влажн.,
%
обл.,
%
осадки,
мм/ч
давл.,
гПа
погр.,
м
18 мая, вт
вт1800:00+17вюв4107394 0.0 1014137
03:00+16вюв497117 0.0 1014118
06:00+16вюв5116783 0.0 1013172
09:00+22вюв6135729 0.0 1013425
12:00+26юв711485 0.0 10121007
15:00+27вюв710480 0.0 10111051
18:00+24вюв513611 0.0 1011414
21:00+21вюв718592 0.0 1011380
19 мая, ср
ср1900:00+18вюв617603 0.0 1010304
03:00+16вюв411632 0.0 1011183
06:00+17юв4137377 0.1 1011299
09:00+22вюв6125788 0.1 1010502
12:00+26юв71249100 0.0 10101298
15:00+27юв81354100 0.0 10101563
18:00+24вюв614615 0.0 1009518
21:00+21вюв81756100 0.0 1009491
20 мая, чт
чт2000:00+21вюв10195474 0.0 1008624
03:00+17ююз597978 0.0 1010357
06:00+16юв2487100 1.5 1010287
09:00+18ююв4675100 1.5 1010866
12:00+19ююв6863100 0.3 10111377
15:00+19ю71064100 0.4 10111652
18:00+18ю477022 0.0 10111050
21:00+15ююв3684100 0.1 1011102
21 мая, пт
пт2100:00+13ю3591100 0.0 1011122
03:00+12ю35965 0.0 101199
06:00+13юз469129 0.0 1012255
09:00+17юз577137 0.1 10121061
12:00+18юз796554 0.3 10131164
15:00+18зюз796051 0.4 10141603
18:00+16зюз5871100 0.0 1015868
21:00+13з4883100 0.1 1017316
22 мая, сб
сб2200:00+11з3591100 0.0 1017132
03:00+10з2292100 0.0 101918
06:00+12зюз1185100 0.0 1019103
09:00+15юв2275100 0.0 1020456
12:00+13ссв1188100 1.7 1021158
15:00+15всв3579100 1.7 1021456
18:00+13св61093100 0.4 1019417
21:00+13всв71490100 1.0 1019395